Date String (YYYY-MM-DD hh:mm:ss) UTC,Instrument flags,absolute air pressure of the measurement (hPa),sample flow rate (lpm),inlet stack bypass flow (lpm),air temperature of the measurement (°C),ambient temperature measured by the external sensor (°C),aerosol sample conditioner tube jacket temperature (°C),OPC LED temperature (°C),internal box temperature (°C),relative humidity of the measurement (%),span deviation,mass concentration of particles derived from Lorenz-Mie calculation of OPC scattering (μg/m³),mass concentration of particles derived from Lorenz-Mie calculation of OPC scattering (μg/m³),mass concentration of particles derived from Lorenz-Mie calculation of OPC scattering (μg/m³)
DateTimeUTC,F1_M11,P_M11,Q1_M11,Q2_M11,T1_M11,T2_M11,T3_M11,T4_M11,T5_M11,U1_M11,ZSPAN_M11,X2_M11,X0_M11,X1_M11
2023-11-16 11:00:00,SystemResetWarning,0823.8,5.00,000.00,026.2,025.2,000.0,034.5,027.6,8.6,0000.0,0007.11,0018.15,0005.99
2023-11-16 11:01:00,SystemResetWarning,0823.8,5.00,000.00,026.2,025.2,000.0,034.6,027.7,8.6,0000.0,0007.38,0020.48,0006.24
2023-11-16 11:02:00,SystemResetWarning,0823.8,5.00,000.00,026.2,025.2,000.0,034.5,027.6,8.6,0000.0,0007.54,0021.67,0006.40
2023-11-16 11:03:00,SystemResetWarning,0823.8,4.99,000.00,026.2,025.2,000.0,034.5,027.6,8.6,0000.0,0007.81,0023.03,0006.57
2023-11-16 11:04:00,SystemResetWarning,0823.8,4.99,000.00,026.2,025.2,000.0,034.6,027.5,8.6,0000.0,0008.09,0025.55,0006.73
2023-11-16 11:05:00,SystemResetWarning,0823.8,5.01,000.00,026.2,025.1,000.0,034.6,027.5,8.5,0000.0,0008.32,0027.49,0006.87
2023-11-16 11:06:00,SystemResetWarning,0823.8,5.01,000.00,026.1,025.1,000.0,034.6,027.5,8.5,0000.0,0008.48,0027.35,0007.02
2023-11-16 11:07:00,SystemResetWarning,0823.8,5.00,000.00,026.1,025.1,000.0,034.5,027.5,8.5,0000.0,0008.60,0027.17,0007.12
2023-11-16 11:08:00,SystemResetWarning,0823.8,4.99,000.00,026.1,025.1,000.0,034.5,027.5,8.5,0004.7,0008.67,0027.75,0007.21
2023-11-16 11:09:00,SystemResetWarning,0823.7,4.99,000.00,026.1,025.0,000.0,034.5,027.6,8.5,0007.6,0008.66,0028.27,0007.17
2023-11-16 11:10:00,SystemResetWarning,0823.7,5.00,000.00,026.1,025.0,000.0,034.5,027.6,8.5,0007.6,0008.53,0028.07,0007.03
2023-11-16 11:11:00,SystemResetWarning,0823.8,5.01,000.00,026.1,025.1,000.0,034.5,027.5,8.5,0007.8,0008.37,0027.30,0006.89
2023-11-16 11:12:00,SystemResetWarning,0823.9,5.00,000.00,026.1,025.1,000.0,034.5,027.5,8.5,0007.8,0008.21,0025.36,0006.73
2023-11-16 11:13:00,SystemResetWarning,0824.0,5.00,000.00,026.1,025.1,000.0,034.5,027.5,8.5,0007.7,0008.05,0025.02,0006.56
2023-11-16 11:14:00,SystemResetWarning,0824.1,5.01,000.00,026.1,025.1,000.0,034.5,027.5,8.6,0007.5,0007.76,0024.64,0006.34
2023-11-16 11:15:00,SystemResetWarning,0824.1,5.00,000.00,026.1,025.1,000.0,034.5,027.5,8.6,0007.5,0007.49,0023.54,0006.13
2023-11-16 11:16:00,SystemResetWarning,0824.2,5.00,000.00,026.1,025.1,000.0,034.5,027.4,8.5,0007.3,0007.33,0021.99,0006.00
2023-11-16 11:17:00,SystemResetWarning,0824.1,4.99,000.00,026.1,025.0,000.0,034.5,027.4,8.5,0007.1,0007.17,0020.09,0005.88
2023-11-16 11:18:00,SystemResetWarning,0824.0,5.00,000.00,026.1,025.0,000.0,034.5,027.4,8.6,0005.8,0007.09,0020.72,0005.81
2023-11-16 11:19:00,SystemResetWarning,0823.8,5.00,000.00,026.1,025.0,000.0,034.5,027.4,8.6,0002.8,0006.99,0021.39,0005.73
2023-11-16 11:20:00,SystemResetWarning,0823.7,5.01,000.00,026.1,025.0,000.0,034.5,027.5,8.6,0000.0,0007.02,0023.03,0005.69
2023-11-16 11:21:00,SystemResetWarning,0823.8,5.01,000.00,026.1,025.1,000.0,034.5,027.5,8.6,0000.0,0007.08,0023.42,0005.78
2023-11-16 11:22:00,SystemResetWarning,0824.0,5.00,000.00,026.1,025.1,000.0,034.5,027.5,8.6,0000.0,0007.20,0023.51,0005.91
2023-11-16 11:23:00,SystemResetWarning,0824.1,5.00,000.00,026.1,025.1,000.0,034.5,027.5,8.6,0000.0,0007.48,0024.17,0006.14
2023-11-16 11:24:00,SystemResetWarning,0824.2,5.00,000.00,026.1,025.1,000.0,034.5,027.5,8.6,0000.0,0007.89,0024.12,0006.48
2023-11-16 11:25:00,SystemResetWarning,0824.0,5.00,000.00,026.1,025.1,000.0,034.5,027.5,8.6,0000.0,0008.34,0022.86,0006.87
2023-11-16 11:26:00,SystemResetWarning,0823.9,5.00,000.00,026.1,025.1,000.0,034.5,027.5,8.6,0000.0,0008.86,0022.39,0007.29
2023-11-16 11:27:00,SystemResetWarning,0823.8,5.00,000.00,026.1,025.1,000.0,034.5,027.6,8.6,0005.4,0009.24,0022.25,0007.62
2023-11-16 11:28:00,SystemResetWarning,0823.8,5.00,000.00,026.1,025.1,000.0,034.5,027.6,8.6,0007.6,0009.67,0023.22,0007.93
2023-11-16 11:29:00,SystemResetWarning,0823.9,5.00,000.00,026.1,025.1,000.0,034.5,027.6,8.6,0007.5,0009.99,0022.61,0008.19
2023-11-16 11:30:00,SystemResetWarning,0823.9,5.01,000.00,026.1,025.2,000.0,034.5,027.6,8.6,0007.8,0010.29,0022.19,0008.42
2023-11-16 11:31:00,SystemResetWarning,0823.8,5.01,000.00,026.1,025.2,000.0,034.5,027.6,8.6,0007.8,0010.52,0020.95,0008.63
2023-11-16 11:32:00,SystemResetWarning,0823.8,4.99,000.00,026.1,025.1,000.0,034.5,027.6,8.6,0007.5,0010.70,0021.01,0008.82
2023-11-16 11:33:00,SystemResetWarning,0823.8,5.00,000.00,026.1,025.2,000.0,034.5,027.6,8.6,0007.3,0010.95,0021.69,0009.02
2023-11-16 11:34:00,SystemResetWarning,0823.8,4.99,000.00,026.1,025.2,000.0,034.5,027.6,8.6,0007.3,0011.16,0021.88,0009.19
2023-11-16 11:35:00,SystemResetWarning,0823.8,4.99,000.00,026.1,025.2,000.0,034.5,027.6,8.6,0007.5,0011.27,0022.51,0009.30
2023-11-16 11:36:00,SystemResetWarning,0823.9,4.99,000.00,026.1,025.2,000.0,034.5,027.6,8.6,0007.4,0011.33,0024.39,0009.34
2023-11-16 11:37:00,SystemResetWarning,0823.8,5.01,000.00,026.1,025.2,000.0,034.5,027.6,8.7,0007.2,0011.26,0025.22,0009.33
2023-11-16 11:38:00,SystemResetWarning,0823.8,5.02,000.00,026.1,025.2,000.0,034.5,027.6,8.6,0007.2,0011.22,0026.35,0009.30
2023-11-16 11:39:00,SystemResetWarning,0823.8,5.00,000.00,026.1,025.2,000.0,034.5,027.6,8.6,0007.4,0011.17,0026.60,0009.24
2023-11-16 11:40:00,SystemResetWarning,0823.7,5.00,000.00,026.1,025.1,000.0,034.5,027.5,8.6,0007.4,0011.14,0026.73,0009.20
2023-11-16 11:41:00,SystemResetWarning,0823.7,5.00,000.00,026.1,025.1,000.0,034.5,027.5,8.6,0007.2,0011.18,0026.38,0009.24
2023-11-16 11:42:00,SystemResetWarning,0823.5,5.00,000.00,026.1,025.1,000.0,034.5,027.5,8.6,0007.2,0011.17,0026.66,0009.29
2023-11-16 11:43:00,SystemResetWarning,0823.6,5.00,000.00,026.1,025.0,000.0,034.5,027.5,8.6,0007.3,0011.24,0027.22,0009.34
2023-11-16 11:44:00,SystemResetWarning,0823.5,5.01,000.00,026.1,025.0,000.0,034.5,027.5,8.6,0007.3,0011.17,0028.36,0009.35
2023-11-16 11:45:00,SystemResetWarning,0823.4,5.00,000.00,026.1,025.0,000.0,034.5,027.5,8.6,0007.3,0011.13,0028.56,0009.31
2023-11-16 11:46:00,SystemResetWarning,0823.4,5.00,000.00,026.1,025.0,000.0,034.5,027.6,8.5,0007.2,0011.03,0028.01,0009.26
2023-11-16 11:47:00,SystemResetWarning,0823.5,5.00,000.00,026.1,025.0,000.0,034.5,027.5,8.6,0007.4,0010.96,0027.16,0009.20
2023-11-16 11:48:00,SystemResetWarning,0823.6,5.00,000.00,026.1,025.0,000.0,034.5,027.5,8.7,0007.6,0010.95,0028.02,0009.18
2023-11-16 11:49:00,SystemResetWarning,0823.6,4.99,000.00,026.1,025.1,000.0,034.5,027.5,8.7,0007.5,0010.96,0026.95,0009.19
2023-11-16 11:50:00,SystemResetWarning,0823.7,5.00,000.00,026.1,025.1,000.0,034.5,027.5,8.7,0007.5,0010.90,0025.68,0009.23
2023-11-16 11:51:00,SystemResetWarning,0823.7,5.00,000.00,026.1,025.1,000.0,034.5,027.5,8.7,0007.6,0010.91,0025.94,0009.26
2023-11-16 11:52:00,SystemResetWarning,0823.7,5.00,000.00,026.1,025.1,000.0,034.5,027.5,8.6,0007.7,0010.84,0025.63,0009.23
2023-11-16 11:53:00,SystemResetWarning,0823.7,5.00,000.00,026.1,025.1,000.0,034.5,027.5,8.7,0007.7,0010.85,0026.12,0009.22
2023-11-16 11:54:00,SystemResetWarning,0823.6,5.00,000.00,026.1,025.1,000.0,034.5,027.5,8.6,0007.9,0010.81,0025.97,0009.19
2023-11-16 11:55:00,SystemResetWarning,0823.5,5.00,000.00,026.1,025.1,000.0,034.5,027.5,8.5,0007.9,0010.85,0026.21,0009.19
2023-11-16 11:56:00,SystemResetWarning,0823.4,5.00,000.00,026.1,025.1,000.0,034.5,027.5,8.5,0007.7,0010.88,0026.51,0009.23
2023-11-16 11:57:00,SystemResetWarning,0823.5,5.00,000.00,026.1,025.1,000.0,034.5,027.5,8.0,0007.7,0010.96,0027.24,0009.27
2023-11-16 11:58:00,SystemResetWarning,0823.4,5.00,000.00,026.1,025.1,000.0,034.5,027.5,8.1,0007.9,0010.98,0026.29,0009.31
2023-11-16 11:59:00,SystemResetWarning,0823.4,5.00,000.00,026.1,025.1,000.0,034.5,027.5,8.1,0007.6,0011.04,0025.37,0009.31
